FW0283 Weather Reports


time (UTC)temp
C
wind
direction
speed
KPH
gust
KPH
rain 1hr
cm
rain 24hr
cm
rain mn
cm
humidity
%
barometer
mb
20260906040121 23 68 0.0 1.6 0.00 0.00 0.00 85 1014.1
20260906034538 24 34 0.0 4.8 0.00 0.00 0.00 85 1014.0
20260906033051 24 355 0.0 1.6 0.00 0.00 0.00 85 1014.0
20260906031535 25 345 0.0 1.6 0.00 0.00 0.00 84 1013.6
20260906030035 25 318 0.0 4.8 0.00 0.00 0.00 83 1013.7
20260906024533 25 323 0.0 4.8 0.00 0.00 0.00 82 1013.7
20260906023032 25 68 0.0 6.4 0.00 0.00 0.00 81 1013.5
20260906021531 26 42 0.0 6.4 0.00 0.00 0.00 81 1013.5
20260906020030 26 300 0.0 3.2 0.00 0.00 0.00 80 1013.4
20260906014529 26 88 0.0 9.7 0.00 0.00 0.00 79 1013.1
20260906013029 27 25 0.0 12.9 0.00 0.00 0.00 78 1013.0
20260906011526 27 138 0.0 12.9 0.00 0.00 0.00 76 1012.9
20260906010026 28 110 0.0 6.4 0.00 0.00 0.00 75 1012.6
20260906004526 28 340 0.0 4.8 0.00 0.00 0.00 75 1012.2
20260906003025 29 340 0.0 8.0 0.00 0.00 0.00 73 1012.1
20260906001525 30 339 0.0 11.3 0.00 0.00 0.00 72 1012.2
20260906000024 31 332 1.6 8.0 0.00 0.00 0.00 71 1012.1
20260905234524 31 30 0.0 9.7 0.00 0.00 0.00 69 1011.9
20260905233124 32 341 0.0 6.4 0.00 0.00 0.00 65 1011.7
20260905231523 32 320 1.6 8.0 0.00 0.00 0.00 64 1011.4
20260905230021 33 9 0.0 4.8 0.00 0.00 0.00 64 1011.5
20260905224546 33 319 1.6 8.0 0.00 0.00 0.00 63 1011.5
20260905223021 33 343 0.0 8.0 0.00 0.00 0.00 64 1011.4
20260905221519 33 336 0.0 8.0 0.00 0.00 0.00 63 1011.5
20260905220018 33 351 0.0 3.2 0.00 0.00 0.00 65 1011.5
20260905214517 33 53 0.0 3.2 0.00 0.00 0.00 63 1011.4
20260905213017 33 205 0.0 6.4 0.00 0.00 0.00 65 1011.4
20260905211536 32 274 0.0 3.2 0.00 0.00 0.00 65 1011.5
20260905210023 33 79 1.6 4.8 0.00 0.00 0.00 65 1011.4
20260905204515 33 209 0.0 6.4 0.00 0.00 0.00 64 1011.5
20260905203014 33 328 0.0 8.0 0.00 0.00 0.00 62 1011.6
20260905201518 33 284 0.0 4.8 0.00 0.00 0.00 63 1011.7
20260905200021 34 247 3.2 9.7 0.00 0.00 0.00 61 1011.8
20260905194511 33 38 0.0 8.0 0.00 0.00 0.00 62 1011.8
20260905193011 34 317 0.0 8.0 0.00 0.00 0.00 61 1011.9
20260905191509 34 46 0.0 11.3 0.00 0.00 0.00 62 1011.9
20260905190009 34 303 1.6 9.7 0.00 0.00 0.00 57 1012.0
20260905184515 34 270 0.0 9.7 0.00 0.00 0.00 59 1012.1
20260905183005 34 282 4.8 9.7 0.00 0.00 0.00 59 1012.2
20260905181505 34 316 0.0 4.8 0.00 0.00 0.00 61 1012.4
20260905180006 34 288 1.6 6.4 0.00 0.00 0.00 62 1012.5
20260905174502 34 270 0.0 4.8 0.00 0.00 0.00 61 1012.7
20260905173123 33 321 3.2 11.3 0.00 0.00 0.00 63 1012.6
20260905171557 33 321 0.0 17.7 0.00 0.00 0.00 62 1012.7
20260905170109 33 305 0.0 4.8 0.00 0.00 0.00 61 1012.9
20260905164602 33 319 1.6 6.4 0.00 0.00 0.00 62 1013.0
20260905163049 32 330 0.0 8.0 0.00 0.00 0.00 62 1013.0
20260905161603 32 316 1.6 6.4 0.00 0.00 0.00 63 1013.0
20260905160046 32 303 0.0 8.0 0.00 0.00 0.00 63 1012.9
20260905154545 32 342 0.0 8.0 0.00 0.00 0.00 64 1013.0
20260905153040 32 281 0.0 4.8 0.00 0.00 0.00 66 1012.8
20260905151538 31 266 3.2 8.0 0.00 0.00 0.00 66 1012.9
20260905150035 31 267 1.6 8.0 0.00 0.00 0.00 70 1012.8
20260905144532 30 276 0.0 9.7 0.00 0.00 0.00 72 1012.6
20260905143029 30 266 1.6 6.4 0.00 0.00 0.00 72 1012.5
20260905141527 30 290 0.0 8.0 0.00 0.00 0.00 72 1012.4
20260905140024 29 301 0.0 0.0 0.00 0.00 0.00 73 1012.4
20260905134521 28 282 0.0 0.0 0.00 0.00 0.00 75 1012.3
20260905133024 27 271 0.0 0.0 0.00 0.00 0.00 80 1012.3
20260905131523 26 276 0.0 1.6 0.00 0.00 0.00 84 1012.5
20260905130013 26 276 0.0 1.6 0.00 0.00 0.00 87 1012.5
20260905124512 25 276 0.0 1.6 0.00 0.00 0.00 89 1012.3
20260905123012 25 283 0.0 0.0 0.00 0.00 0.00 90 1012.2
20260905121513 24 283 0.0 0.0 0.00 0.00 0.00 91 1012.1
20260905120010 24 283 0.0 0.0 0.00 0.00 0.00 91 1012.1
20260905114510 24 283 0.0 0.0 0.00 0.00 0.00 91 1011.9
20260905113012 24 283 0.0 0.0 0.00 0.00 0.00 91 1011.8
20260905111508 24 283 0.0 0.0 0.00 0.00 0.00 91 1011.7
20260905110006 24 283 0.0 0.0 0.00 0.00 0.00 90 1011.7
20260905104504 25 283 0.0 0.0 0.00 0.00 0.00 90 1011.6
20260905103006 25 283 0.0 0.0 0.00 0.00 0.00 89 1011.8
20260905101502 25 283 0.0 0.0 0.00 0.00 0.00 88 1011.8
20260905100002 25 283 0.0 0.0 0.00 0.00 0.00 88 1011.8
20260905094601 25 283 0.0 0.0 0.00 0.00 0.00 88 1011.7
20260905093059 25 284 0.0 0.0 0.00 0.00 0.00 88 1011.5
20260905091604 25 284 0.0 0.0 0.00 0.00 0.00 87 1011.8
20260905090057 25 284 0.0 0.0 0.00 0.00 0.00 87 1011.7
20260905084559 25 284 0.0 0.0 0.00 0.00 0.00 86 1011.9
20260905083107 25 284 0.0 0.0 0.00 0.00 0.00 85 1011.9
20260905081552 26 284 0.0 0.0 0.00 0.00 0.00 84 1011.9
20260905080050 26 284 0.0 1.6 0.00 0.00 0.00 85 1012.0
20260905074549 26 284 0.0 0.0 0.00 0.00 0.00 85 1012.1
20260905073047 26 284 0.0 0.0 0.00 0.00 0.00 85 1012.1
20260905071548 26 284 0.0 0.0 0.00 0.00 0.00 85 1012.2
20260905070048 26 284 0.0 0.0 0.00 0.00 0.00 85 1012.0
20260905064549 26 284 0.0 0.0 0.00 0.00 0.00 86 1012.2
20260905063042 26 284 0.0 0.0 0.00 0.00 0.00 85 1012.3
20260905061544 26 284 0.0 0.0 0.00 0.00 0.00 84 1012.5
20260905060045 27 284 0.0 0.0 0.00 0.00 0.00 84 1012.4
20260905054607 27 284 0.0 0.0 0.00 0.00 0.00 84 1012.4
20260905053040 27 284 0.0 0.0 0.00 0.00 0.00 83 1012.3
20260905051535 27 284 0.0 0.0 0.00 0.00 0.00 83 1012.1
20260905050032 27 284 0.0 0.0 0.00 0.00 0.00 82 1012.2
20260905044531 27 284 0.0 0.0 0.00 0.00 0.00 82 1012.3
20260905043031 27 284 0.0 0.0 0.00 0.00 0.00 80 1012.2
20260905041531 27 284 0.0 0.0 0.00 0.00 0.00 78 1012.1